Time,TemperatureF,DewpointF,PressureIn,WindDirection,WindDirectionDegrees,WindSpeedMPH,WindSpeedGustMPH,Humidity,HourlyPrecipIn,Conditions,Clouds,dailyrainin,SolarRadiationWatts/m^2,SoftwareType,DateUTC
2013-03-24 00:12:00,67.0,-29.0,-100.00,West,274,11.0,34.0,0,0.00,,,0.00,0.000000,,2013-03-24 10:12:00,
2013-03-24 00:22:00,67.0,-29.0,-100.00,West,274,11.0,34.0,0,0.00,,,0.00,0.000000,,2013-03-24 10:22:00,
2013-03-24 00:32:00,67.0,-29.0,-100.00,West,274,11.0,34.0,0,0.00,,,0.00,0.000000,,2013-03-24 10:32:00,
2013-03-24 00:42:00,67.0,-29.0,-100.00,West,274,11.0,34.0,0,0.00,,,0.00,0.000000,,2013-03-24 10:42:00,
2013-03-24 01:12:00,66.0,-29.0,-100.00,NE,54,11.0,31.0,0,0.00,,,0.00,0.000000,,2013-03-24 11:12:00,
2013-03-24 01:22:00,66.0,-29.0,-100.00,NE,54,11.0,31.0,0,0.00,,,0.00,0.000000,,2013-03-24 11:22:00,
2013-03-24 01:32:00,66.0,-29.0,-100.00,NE,54,11.0,31.0,0,0.00,,,0.00,0.000000,,2013-03-24 11:32:00,
2013-03-24 01:42:00,66.0,-29.0,-100.00,NE,54,11.0,31.0,0,0.00,,,0.00,0.000000,,2013-03-24 11:42:00,
2013-03-24 01:51:00,66.0,-29.0,-100.00,NE,54,11.0,31.0,0,0.00,,,0.00,0.000000,,2013-03-24 11:51:00,
2013-03-24 01:52:00,66.0,-29.0,-100.00,NE,40,12.0,32.0,0,0.00,,,0.00,0.000000,,2013-03-24 11:52:00,
2013-03-24 02:22:00,66.0,-29.0,-100.00,NE,40,12.0,32.0,0,0.00,,,0.00,0.000000,,2013-03-24 12:22:00,
2013-03-24 02:32:00,66.0,-29.0,-100.00,NE,40,12.0,32.0,0,0.00,,,0.00,0.000000,,2013-03-24 12:32:00,
2013-03-24 02:42:00,66.0,-29.0,-100.00,NE,40,12.0,32.0,0,0.00,,,0.00,0.000000,,2013-03-24 12:42:00,
2013-03-24 02:52:00,66.0,-29.0,-100.00,SW,235,11.0,32.0,0,0.00,,,0.00,0.000000,,2013-03-24 12:52:00,
2013-03-24 03:12:00,66.0,-29.0,-100.00,SW,235,11.0,32.0,0,0.00,,,0.00,0.000000,,2013-03-24 13:12:00,
2013-03-24 03:22:00,66.0,-29.0,-100.00,SW,235,11.0,32.0,0,0.00,,,0.00,0.000000,,2013-03-24 13:22:00,
2013-03-24 03:32:00,66.0,-29.0,-100.00,SW,235,11.0,32.0,0,0.00,,,0.00,0.000000,,2013-03-24 13:32:00,
2013-03-24 03:42:00,66.0,-29.0,-100.00,SW,235,11.0,32.0,0,0.00,,,0.00,0.000000,,2013-03-24 13:42:00,
2013-03-24 04:12:00,67.0,-29.0,-100.00,SE,137,13.0,31.0,0,0.00,,,0.00,0.000000,,2013-03-24 14:12:00,
2013-03-24 04:22:00,67.0,-29.0,-100.00,SE,137,13.0,31.0,0,0.00,,,0.00,0.000000,,2013-03-24 14:22:00,
2013-03-24 04:32:00,67.0,-29.0,-100.00,SE,137,13.0,31.0,0,0.00,,,0.00,0.000000,,2013-03-24 14:32:00,
2013-03-24 04:42:00,67.0,-29.0,-100.00,SE,137,13.0,31.0,0,0.00,,,0.00,0.000000,,2013-03-24 14:42:00,
2013-03-24 04:51:00,67.0,-29.0,-100.00,SE,137,13.0,31.0,0,0.00,,,0.00,0.000000,,2013-03-24 14:51:00,
2013-03-24 04:52:00,67.0,-29.0,-100.00,NNW,342,7.0,32.0,0,0.00,,,0.00,0.000000,,2013-03-24 14:52:00,
2013-03-24 05:12:00,67.0,-29.0,-100.00,NNW,342,7.0,32.0,0,0.00,,,0.00,0.000000,,2013-03-24 15:12:00,
2013-03-24 05:22:00,67.0,-29.0,-100.00,NNW,342,7.0,32.0,0,0.00,,,0.00,0.000000,,2013-03-24 15:22:00,
2013-03-24 05:33:00,67.0,-29.0,-100.00,NNW,342,7.0,32.0,0,0.00,,,0.00,0.000000,,2013-03-24 15:33:00,
2013-03-24 05:43:00,67.0,-29.0,-100.00,NNW,342,7.0,32.0,0,0.00,,,0.00,0.000000,,2013-03-24 15:43:00,
2013-03-24 05:52:00,66.0,-29.0,-100.00,ENE,57,10.0,11.0,0,0.00,,,0.00,0.000000,,2013-03-24 15:52:00,
2013-03-24 06:12:00,66.0,-29.0,-100.00,ENE,57,10.0,11.0,0,0.00,,,0.00,0.000000,,2013-03-24 16:12:00,
2013-03-24 06:22:00,66.0,-29.0,-100.00,ENE,57,10.0,11.0,0,0.00,,,0.00,0.000000,,2013-03-24 16:22:00,
2013-03-24 06:32:00,66.0,-29.0,-100.00,ENE,57,10.0,11.0,0,0.00,,,0.00,0.000000,,2013-03-24 16:32:00,
2013-03-24 06:42:00,66.0,-29.0,-100.00,ENE,57,10.0,11.0,0,0.00,,,0.00,0.000000,,2013-03-24 16:42:00,
2013-03-24 06:52:00,67.0,-29.0,-100.00,ENE,59,9.0,15.0,0,0.00,,,0.00,0.000000,,2013-03-24 16:52:00,
2013-03-24 07:12:00,67.0,-29.0,-100.00,ENE,59,9.0,15.0,0,0.00,,,0.00,0.000000,,2013-03-24 17:12:00,
2013-03-24 07:22:00,67.0,-29.0,-100.00,ENE,59,9.0,15.0,0,0.00,,,0.00,0.000000,,2013-03-24 17:22:00,
2013-03-24 07:32:00,67.0,-29.0,-100.00,ENE,59,9.0,15.0,0,0.00,,,0.00,0.000000,,2013-03-24 17:32:00,
2013-03-24 07:42:00,67.0,-29.0,-100.00,ENE,59,9.0,15.0,0,0.00,,,0.00,0.000000,,2013-03-24 17:42:00,
2013-03-24 07:52:00,67.0,-29.0,-100.00,SE,131,3.0,12.0,0,0.00,,,0.00,8.000000,,2013-03-24 17:52:00,
2013-03-24 08:22:00,67.0,-29.0,-100.00,SE,131,3.0,12.0,0,0.00,,,0.00,8.000000,,2013-03-24 18:22:00,
2013-03-24 08:32:00,67.0,-29.0,-100.00,SE,131,3.0,12.0,0,0.00,,,0.00,8.000000,,2013-03-24 18:32:00,
2013-03-24 08:42:00,67.0,-29.0,-100.00,SE,131,3.0,12.0,0,0.00,,,0.00,8.000000,,2013-03-24 18:42:00,
2013-03-24 08:52:00,70.0,-27.0,-100.00,ESE,122,11.0,30.0,0,0.00,,,0.00,126.000000,,2013-03-24 18:52:00,
2013-03-24 09:22:00,70.0,-27.0,-100.00,ESE,122,11.0,30.0,0,0.00,,,0.00,126.000000,,2013-03-24 19:22:00,
2013-03-24 09:32:00,70.0,-27.0,-100.00,ESE,122,11.0,30.0,0,0.00,,,0.00,126.000000,,2013-03-24 19:32:00,
2013-03-24 09:42:00,70.0,-27.0,-100.00,ESE,122,11.0,30.0,0,0.00,,,0.00,126.000000,,2013-03-24 19:42:00,
2013-03-24 09:52:00,71.0,-26.0,-100.00,South,170,15.0,28.0,0,0.00,,,0.00,204.000000,,2013-03-24 19:52:00,
2013-03-24 10:12:00,71.0,-26.0,-100.00,South,170,15.0,28.0,0,0.00,,,0.00,204.000000,,2013-03-24 20:12:00,
2013-03-24 10:22:00,71.0,-26.0,-100.00,South,170,15.0,28.0,0,0.00,,,0.00,204.000000,,2013-03-24 20:22:00,
2013-03-24 10:32:00,71.0,-26.0,-100.00,South,170,15.0,28.0,0,0.00,,,0.00,204.000000,,2013-03-24 20:32:00,
2013-03-24 10:42:00,71.0,-26.0,-100.00,South,170,15.0,28.0,0,0.00,,,0.00,204.000000,,2013-03-24 20:42:00,
2013-03-24 10:52:00,75.0,-24.0,-100.00,South,190,12.0,28.0,0,0.00,,,0.00,579.000000,,2013-03-24 20:52:00,
2013-03-24 11:12:00,75.0,-24.0,-100.00,South,190,12.0,28.0,0,0.00,,,0.00,579.000000,,2013-03-24 21:12:00,
2013-03-24 11:22:00,75.0,-24.0,-100.00,South,190,12.0,28.0,0,0.00,,,0.00,579.000000,,2013-03-24 21:22:00,
2013-03-24 11:32:00,75.0,-24.0,-100.00,South,190,12.0,28.0,0,0.00,,,0.00,579.000000,,2013-03-24 21:32:00,
2013-03-24 11:43:00,75.0,-24.0,-100.00,South,190,12.0,28.0,0,0.00,,,0.00,579.000000,,2013-03-24 21:43:00,
2013-03-24 11:52:00,75.0,-24.0,-100.00,SE,126,14.0,23.0,0,0.00,,,0.00,734.000000,,2013-03-24 21:52:00,
2013-03-24 12:22:00,75.0,-24.0,-100.00,SE,126,14.0,23.0,0,0.00,,,0.00,734.000000,,2013-03-24 22:22:00,
2013-03-24 12:33:00,75.0,-24.0,-100.00,SE,126,14.0,23.0,0,0.00,,,0.00,734.000000,,2013-03-24 22:33:00,
2013-03-24 12:42:00,75.0,-24.0,-100.00,SE,126,14.0,23.0,0,0.00,,,0.00,734.000000,,2013-03-24 22:42:00,
2013-03-24 12:52:00,73.0,-25.0,-100.00,SE,144,17.0,26.0,0,0.00,,,0.00,473.000000,,2013-03-24 22:52:00,
2013-03-24 13:12:00,73.0,-25.0,-100.00,SE,144,17.0,26.0,0,0.00,,,0.00,473.000000,,2013-03-24 23:12:00,
2013-03-24 13:22:00,73.0,-25.0,-100.00,SE,144,17.0,26.0,0,0.00,,,0.00,473.000000,,2013-03-24 23:22:00,
2013-03-24 13:32:00,73.0,-25.0,-100.00,SE,144,17.0,26.0,0,0.00,,,0.00,473.000000,,2013-03-24 23:32:00,
2013-03-24 13:42:00,73.0,-25.0,-100.00,SE,144,17.0,26.0,0,0.00,,,0.00,473.000000,,2013-03-24 23:42:00,
2013-03-24 13:52:00,72.0,-26.0,-100.00,SE,136,14.0,26.0,0,0.00,,,0.00,610.000000,,2013-03-24 23:52:00,
2013-03-24 14:22:00,72.0,-26.0,-100.00,SE,136,14.0,26.0,0,0.00,,,0.00,610.000000,,2013-03-25 00:22:00,
2013-03-24 14:32:00,72.0,-26.0,-100.00,SE,136,14.0,26.0,0,0.00,,,0.00,610.000000,,2013-03-25 00:32:00,
2013-03-24 14:42:00,72.0,-26.0,-100.00,SE,136,14.0,26.0,0,0.00,,,0.00,610.000000,,2013-03-25 00:42:00,
2013-03-24 14:52:00,75.0,-24.0,-100.00,East,98,11.0,27.0,0,0.00,,,0.00,724.000000,,2013-03-25 00:52:00,
2013-03-24 15:12:00,75.0,-24.0,-100.00,East,98,11.0,27.0,0,0.00,,,0.00,724.000000,,2013-03-25 01:12:00,
2013-03-24 15:22:00,75.0,-24.0,-100.00,East,98,11.0,27.0,0,0.00,,,0.00,724.000000,,2013-03-25 01:22:00,
2013-03-24 15:32:00,75.0,-24.0,-100.00,East,98,11.0,27.0,0,0.00,,,0.00,724.000000,,2013-03-25 01:32:00,
2013-03-24 15:42:00,75.0,-24.0,-100.00,East,98,11.0,27.0,0,0.00,,,0.00,724.000000,,2013-03-25 01:42:00,
2013-03-24 16:22:00,74.0,-25.0,-100.00,NE,37,10.0,19.0,0,0.00,,,0.00,503.000000,,2013-03-25 02:22:00,
2013-03-24 16:32:00,74.0,-25.0,-100.00,NE,37,10.0,19.0,0,0.00,,,0.00,503.000000,,2013-03-25 02:32:00,
2013-03-24 16:42:00,74.0,-25.0,-100.00,NE,37,10.0,19.0,0,0.00,,,0.00,503.000000,,2013-03-25 02:42:00,
2013-03-24 16:51:00,74.0,-25.0,-100.00,NE,37,10.0,19.0,0,0.00,,,0.00,503.000000,,2013-03-25 02:51:00,
2013-03-24 16:52:00,69.0,-28.0,-100.00,ENE,73,8.0,22.0,0,0.00,,,0.00,159.000000,,2013-03-25 02:52:00,
2013-03-24 17:12:00,69.0,-28.0,-100.00,ENE,73,8.0,22.0,0,0.00,,,0.00,159.000000,,2013-03-25 03:12:00,
2013-03-24 17:22:00,69.0,-28.0,-100.00,ENE,73,8.0,22.0,0,0.00,,,0.00,159.000000,,2013-03-25 03:22:00,
2013-03-24 17:33:00,69.0,-28.0,-100.00,ENE,73,8.0,22.0,0,0.00,,,0.00,159.000000,,2013-03-25 03:33:00,
2013-03-24 17:42:00,69.0,-28.0,-100.00,ENE,73,8.0,22.0,0,0.00,,,0.00,159.000000,,2013-03-25 03:42:00,
2013-03-24 17:52:00,70.0,-27.0,-100.00,SE,143,7.0,35.0,0,0.00,,,0.00,151.000000,,2013-03-25 03:52:00,
2013-03-24 18:12:00,70.0,-27.0,-100.00,SE,143,7.0,35.0,0,0.00,,,0.00,151.000000,,2013-03-25 04:12:00,
2013-03-24 18:22:00,70.0,-27.0,-100.00,SE,143,7.0,35.0,0,0.00,,,0.00,151.000000,,2013-03-25 04:22:00,
2013-03-24 18:32:00,70.0,-27.0,-100.00,SE,143,7.0,35.0,0,0.00,,,0.00,151.000000,,2013-03-25 04:32:00,
2013-03-24 18:42:00,70.0,-27.0,-100.00,SE,143,7.0,35.0,0,0.00,,,0.00,151.000000,,2013-03-25 04:42:00,
2013-03-24 19:12:00,69.0,-28.0,-100.00,SE,138,8.0,17.0,0,0.00,,,0.00,78.000000,,2013-03-25 05:12:00,
2013-03-24 19:22:00,69.0,-28.0,-100.00,SE,138,8.0,17.0,0,0.00,,,0.00,78.000000,,2013-03-25 05:22:00,
2013-03-24 19:32:00,69.0,-28.0,-100.00,SE,138,8.0,17.0,0,0.00,,,0.00,78.000000,,2013-03-25 05:32:00,
2013-03-24 19:42:00,69.0,-28.0,-100.00,SE,138,8.0,17.0,0,0.00,,,0.00,78.000000,,2013-03-25 05:42:00,
2013-03-24 19:51:00,69.0,-28.0,-100.00,SE,138,8.0,17.0,0,0.00,,,0.00,78.000000,,2013-03-25 05:51:00,
2013-03-24 19:52:00,68.0,-28.0,-100.00,ESE,111,8.0,35.0,0,0.00,,,0.00,6.000000,,2013-03-25 05:52:00,
2013-03-24 20:22:00,68.0,-28.0,-100.00,ESE,111,8.0,35.0,0,0.00,,,0.00,6.000000,,2013-03-25 06:22:00,
2013-03-24 20:32:00,68.0,-28.0,-100.00,ESE,111,8.0,35.0,0,0.00,,,0.00,6.000000,,2013-03-25 06:32:00,
2013-03-24 20:42:00,68.0,-28.0,-100.00,ESE,111,8.0,35.0,0,0.00,,,0.00,6.000000,,2013-03-25 06:42:00,
2013-03-24 20:52:00,69.0,-28.0,-100.00,ENE,77,11.0,32.0,0,0.00,,,0.00,0.000000,,2013-03-25 06:52:00,
2013-03-24 21:22:00,69.0,-28.0,-100.00,ENE,77,11.0,32.0,0,0.00,,,0.00,0.000000,,2013-03-25 07:22:00,
2013-03-24 21:31:00,69.0,-28.0,-100.00,ENE,77,11.0,32.0,0,0.00,,,0.00,0.000000,,2013-03-25 07:31:00,
2013-03-24 21:42:00,69.0,-28.0,-100.00,ENE,77,11.0,32.0,0,0.00,,,0.00,0.000000,,2013-03-25 07:42:00,
2013-03-24 21:52:00,68.0,-28.0,-100.00,SSW,209,12.0,31.0,0,0.00,,,0.00,0.000000,,2013-03-25 07:52:00,
2013-03-24 22:12:00,68.0,-28.0,-100.00,SSW,209,12.0,31.0,0,0.00,,,0.00,0.000000,,2013-03-25 08:12:00,
2013-03-24 22:22:00,68.0,-28.0,-100.00,SSW,209,12.0,31.0,0,0.00,,,0.00,0.000000,,2013-03-25 08:22:00,
2013-03-24 22:32:00,68.0,-28.0,-100.00,SSW,209,12.0,31.0,0,0.00,,,0.00,0.000000,,2013-03-25 08:32:00,
2013-03-24 22:42:00,68.0,-28.0,-100.00,SSW,209,12.0,31.0,0,0.00,,,0.00,0.000000,,2013-03-25 08:42:00,
2013-03-24 22:52:00,69.0,-28.0,-100.00,North,8,8.0,31.0,0,0.00,,,0.00,0.000000,,2013-03-25 08:52:00,
2013-03-24 23:12:00,69.0,-28.0,-100.00,North,8,8.0,31.0,0,0.00,,,0.00,0.000000,,2013-03-25 09:12:00,
2013-03-24 23:22:00,69.0,-28.0,-100.00,North,8,8.0,31.0,0,0.00,,,0.00,0.000000,,2013-03-25 09:22:00,
2013-03-24 23:32:00,69.0,-28.0,-100.00,North,8,8.0,31.0,0,0.00,,,0.00,0.000000,,2013-03-25 09:32:00,
2013-03-24 23:42:00,69.0,-28.0,-100.00,North,8,8.0,31.0,0,0.00,,,0.00,0.000000,,2013-03-25 09:42:00,
2013-03-24 23:52:00,67.0,-29.0,-100.00,SE,125,6.0,32.0,0,0.00,,,0.00,0.000000,,2013-03-25 09:52:00,